Home   Weather   Niterói   Past weeks

Flag for Brazil Past Weather in Niterói, Rio de Janeiro, Brazil — Yesterday and Last 2 Weeks

Now
79 °F

Passing clouds.


Feels Like: 82 °F
Forecast: 76 / 91 °F
Wind: 6 mph from Northeast

Location: Rio De Janeiro Airport

Current Time: Jan 24, 2017 at 5:30:39 am

Latest Report: Jan 24, 2017 at 4:00 am


Visibility: N/A

Pressure: 29.89 "Hg

Humidity: 84%

Dew Point: 73 °F

Location of NiteróiLocation

Past Weather in Niterói — Graph

°F

Niterói Temperature Yesterday

Maximum temperature yesterday: 91 °F (at 3:00 pm)
Minimum temperature yesterday: 77 °F (at 2:00 am)
Average temperature yesterday: 84 °F

High & Low Weather Summary for the Past Weeks

 TemperatureHumidityPressure
High99 °F (Jan 10, 12:00 pm)94% (Jan 12, 3:00 am)30.01 "Hg (Jan 12, 3:00 am)
Low77 °F (Jan 11, 5:15 pm)34% (Jan 17, 5:00 pm)29.68 "Hg (Jan 9, 5:00 pm)
Average84 °F74%29.83 "Hg
* Reported Jan 9 3:00 am — Jan 24 3:00 am, Niterói, Weather by CustomWeather, © 2017

Note: Actual official high and low records may vary slightly from our data, if they occured in-between our weather recording intervals... More about our weather records

Advertising

Niterói Weather History for the Previous 24 Hours

Scroll right to see more
 ConditionsComfort  
Time TempWeatherWind HumidityBarometerVisibility
3:00 am
Tue, Jan 24
79 °FPassing clouds.8 mph89%29.89 "HgN/A
2:00 am81 °FPassing clouds.8 mph84%29.89 "HgN/A
1:00 am81 °FPassing clouds.6 mph84%29.92 "HgN/A
12:00 am81 °FPartly cloudy.8 mph79%29.92 "HgN/A
11:00 pm
Mon, Jan 23
84 °FPartly cloudy.6 mph74%29.92 "HgN/A
10:00 pm82 °FThunderstorms. Passing clouds.10 mph79%29.92 "HgN/A
9:00 pm84 °FThunderstorms. Partly cloudy.9 mph66%29.89 "HgN/A
8:00 pm86 °FPartly cloudy.6 mph70%29.86 "HgN/A
7:00 pm86 °FScattered clouds.13 mph70%29.86 "HgN/A
6:00 pm86 °FPassing clouds.15 mph75%29.83 "HgN/A
5:00 pm91 °FPassing clouds.13 mph67%29.83 "HgN/A
4:00 pm91 °FPassing clouds.15 mph63%29.86 "HgN/A
3:00 pm91 °FPassing clouds.15 mph59%29.86 "HgN/A
2:00 pm90 °FPassing clouds.13 mph63%29.89 "HgN/A
1:00 pm90 °FScattered clouds.9 mph67%29.89 "HgN/A
12:00 pm88 °FSunny.5 mph62%29.92 "Hg10 mi
11:00 am88 °FPartly sunny.7 mph66%29.92 "HgN/A
9:00 am84 °FScattered clouds.6 mph70%29.92 "HgN/A
8:40 am81 °FScattered clouds.5 mph79%29.92 "HgN/A
8:00 am79 °FBroken clouds.6 mph84%29.92 "Hg5 mi
7:00 am77 °FPartly sunny.7 mph89%29.89 "Hg5 mi
6:00 am77 °FPassing clouds.3 mph89%29.89 "HgN/A
5:00 am77 °FPassing clouds.2 mph89%29.89 "HgN/A
Weather by CustomWeather, © 2017

See weather overviewHow to use our weather pages